CZ-2D DEB (43104 NORAD) Tracking and Keplerian Element Data

This shows tracking and keplerian element data for the satellite.

Feedback or suggestion? Click here.




ElementValue
Catalog43104
NameCZ-2D DEB
Epoch Orbit441
Epoch Day38.15785423
Epoch Year2018
RAAN115.1022
Inclination97.4436
Eccentricity0.0052886
Argument of Perigee230.7491
Mean Anonmoly128.9018
Mean Motion15.23158566
Decay Rate1.746E-05
L11 43104U 18002F 18038.15785423 .00001746 00000-0 74263-4 0 9992
L22 43104 97.4436 115.1022 0052886 230.7491 128.9018 15.23158566 4414



Live tracking and technical data element details for CZ-2D DEB (NORAD 43104). CZ-2D DEB can be tracked NOW for your location showing map with azimuth and elevation plus other details from your city location.







IsCatalogInMostPopularTable: catalog: 43104, numindb: 579
Update: records affected: 1



GetName: 43104 CZ-2D DEB

Hit Count: updated at: Thu, 22 May 2025 03:30:30 GMT